Location: Arbon
(43.0005°N, 0.7472°E)
Time: 14:28:30
(UTC+00:00)

Envisat - Pass Details

Date: 27 October 2020
Orbit: 764 x 766 km, 98.1° (Epoch: 30 November)

Event Time Altitude Azimuth Distance (km) Brightness Sun altitude
Rises 05:19:40 0° 21° (NNE) 3,241 6.4 -12.6°
Reaches altitude 10° 05:22:09 10° 30° (NNE) 2,310 5.8 -12.2°
Maximum altitude 05:26:51 37° 97° (E) 1,183 4.7 -11.3°
Drops below altitude 10° 05:31:31 10° 164° (SSE) 2,293 5.8 -10.5°
Sets 05:33:58 0° 173° (S) 3,214 6.4 -10.0°
